Regional Weather Roundup
Issued by NWS Charleston, SC

Current Version | Previous Version | Text Only | Print | Product List | Glossary Off
Versions: 1 2 3 4 5 6 7 8 9 10 11 12 13 14 15 16 17 18 19 20 21 22 23 24 25 26 27 28 29 30 31 32 33 34 35 36 37 38 39 40 41 42 43 44 45 46 47 48 49 50

000
ASUS42 KCHS 292125
RWRCHS

REGIONAL WEATHER ROUNDUP
NATIONAL WEATHER SERVICE CHARLESTON SC
500 PM EDT TUE JUL 29 2014

NOTE: "FAIR" INDICATES FEW OR NO CLOUDS BELOW 12,000 FEET WITH NO
SIGNIFICANT WEATHER AND/OR OBSTRUCTIONS TO VISIBILITY.

NOT ALL STATIONS ARE QUALITY CONTROLLED BY THE NATIONAL
WEATHER SERVICE. USE DATA WITH CAUTION...ESPECIALLY
DEWPOINT OBSERVATIONS.

SCZ027-030-031-034>040-042>050-292200-
...SOUTH CAROLINA...

CITY           SKY/WX    TMP DP  RH WIND       PRES   REMARKS
N CHARLESTON   MOSUNNY   90  62  39 VRB5      29.89S HX  90
WATERFRONT PRK   N/A     82 N/A N/A SE8         N/A
FORT JOHNSON   NOT AVBL
MOUNT PLEASANT FAIR      84  72  65 SE5       29.89S
JOHNS ISLAND   MOCLDY    84  70  61 SE3       29.90S
PINOPOLIS        N/A     88  63  42 N5        29.82F
MONCKS CORNER    N/A     88  68  51 NW3       29.90S HX  91
SUMMERVILLE    MOCLDY    90  64  43 CALM      29.90F HX  91
BEAUFORT MCAS  MOSUNNY   90  65  43 NE5       29.89F HX  92
BEAUFORT ARPT  FAIR      90  64  43 NW7       29.88F HX  91
HILTON HEAD IS MOSUNNY   84  73  70 CALM      29.91S HX  91
GEORGETOWN     NOT AVBL
WALTERBORO       N/A     90  55  31 NW7       29.91R
ORANGEBURG     MOSUNNY   87  59  38 NW7       29.91S
BARNWELL       MOCLDY    88  61  40 W5        29.91F
AIKEN          FAIR      88  61  40 W7        29.95F
MANNING        FAIR      88  63  42 CALM      29.91S
KINGSTREE      NOT AVBL
COLUMBIA       MOSUNNY   90  54  29 VRB5      29.91S
SUMTER         PTSUNNY   86  61  42 W7        29.90S
FLORENCE       MOSUNNY   85  59  41 NE3       29.91S
MYRTLE BEACH   MOSUNNY   86  64  48 S10       29.90R
N MYRTLE BEACH MOSUNNY   85  66  53 S5        29.89S

$$

GAZ063-065-086>088-099>101-113>116-118-119-134-136>141-150-292200-
...GEORGIA...

CITY           SKY/WX    TMP DP  RH WIND       PRES   REMARKS
SAVANNAH ARPT  MOSUNNY   92  58  31 VRB7      29.89F HX  91
HUNTER AAF     MOSUNNY   90  63  40 SE5       29.87F HX  90
FORT STEWART   SUNNY     91  58  33 W8        29.88F HX  90
STATESBORO     NOT AVBL
SYLVANIA       MOCLDY    88  67  49 N6        29.92S HX  90
CLAXTON        MOCLDY    88  64  45 CALM      29.90F
THOMSON        MOSUNNY   88  66  48 W6        29.97S HX  90
AUGUSTA-BUSH   MOSUNNY   88  57  34 CALM      29.90F
AUGUSTA-DANIEL MOSUNNY   88  57  34 VRB6      29.92F
SWAINSBORO     CLOUDY    90  63  40 CALM      29.93S HX  90
VIDALIA          N/A     90  59  35 NW7       29.91S
ALMA           SUNNY     92  56  29 N8        29.90F HX  90
WAYCROSS       MOSUNNY   96  63  33 NW7       29.88F HX  96
JESUP          FAIR      95  59  30 NW9       29.88F HX  94
BRUNSWICK      SUNNY     95  54  24 NW5       29.88S HX  93
SAINT SIMONS   MOSUNNY   87  71  58 SE12      29.87F HX  93

$$

SCZ027-028-034-036>038-045-046-048>050-GAZ119-141-292200-
...LAKE AND SUPPLEMENTAL COASTAL OBSERVATIONS...

STATION/POSITION TIME  TEMP    WIND        PRES    WAVE   SWELL
                       AIR SEA DIR/SP/G            HT/PER HT/PER/DIR
                 (UTC) (F)     (DEG/KT/KT) (MB)    (FT/S) (FT/S/D)
UPR LAKE MARION  NOT AVBL
WINYAH BAY       2100   83      90/  6     1012.0S
LAKE MURRAY      2000   85     150/  4/  6 1012.5F
ACE BASIN NERRS  2100   87        CALM     1012.0F
FORT PULASKI     2100   82      60/ 10/ 12 1012.4F
SAPELO ISLAND    2100   89     100/  7     1013.0S

$$

ANZ835-935-AMZ111-154-330-350-352-354-374-450-454-472-292200-
...C-MAN AND BUOY OBSERVATIONS...

STATION/POSITION TIME  TEMP    WIND        PRES    WAVE   SWELL
                       AIR SEA DIR/SP/G            HT/PER HT/PER/DIR
                 (UTC) (F)     (DEG/KT/KT) (MB)    (FT/S) (FT/S/D)
FOLLY BEACH CMAN 2100   83     140/  7/  8 1012.7S
BUOY 41004       2100   81 84   30/  8/ 10 1011.8R   3/ 5   3/ 5
BUOY 41008       2100   84 87   60/  6/  8 1012.0F   2/ 4   2/ 80/ 4
5E ST. MARYS GA  2100      86                N/A     1/ 8
FRYING PAN BUOY  NOT AVBL
BUOY 41025       2100          VRB 14/ 16  1012.6R   4/ 7   2/160/ 7
CAPE LOOKOUT NC  2100   78      70/ 11/ 13 1012.7R
BUOY 41002       2043   80 81  210/ 23/ 29 1013.0F   6/ 7   2/310/15
BUOY 41010       2100   85 84  240/ 14/ 16 1013.4S   4/ 6   2/100/ 8
BUOY 41012       NOT AVBL
ST AUGUSTINE FL  2100   83     150/  8/  9 1012.6F
CAPERS NEARSHORE 2000   84     120/  6/  8   N/A
FRIPP NEARSHORE  NOT AVBL


$$



USA.gov is the U.S. government's official web portal to all federal, state and local government web resources and services.